Zurück zum Katalog

NOAA 16 DEB

AktivPO
NORAD 41091·DEBRIS·🇺🇸 United States

Gestartet Sep 21, 2000 von Vandenberg Space Force Base

Loading…

Nächste Überflüge (nächste 24 Stunden)

TLE

AktuellSource: Space-Track

Epoche: Sep 14, 2026, 08:07 UTC

1 41091U 00055BA  26257.33821281  .00005524  00000-0  17964-2 0  9990
2 41091  98.9695  31.2679 0036620 266.0873  93.6126 14.38828543556302

Verfolge NOAA 16 DEB in Echtzeit mit AllMySat

Download on the App Store